Norfolk, NE

1:40 AM CST on February 23, 2018 (GMT -0600)
Stefan Memorial

Weather History for KOFK - May, 2014

Change the Weather History Date:

Sunday, May 18, 2014

  Actual Average Record
Temperature  
Mean Temperature 59 °F 61 °F  
Max Temperature 73 °F 73 °F 100 °F (1934)
Min Temperature 44 °F 49 °F 30 °F (2002)
Degree Days  
Heating Degree Days 6 5  
Month to date heating degree days 202 138  
Since 1 July heating degree days 6932 6561  
Cooling Degree Days 0 2  
Month to date cooling degree days 8 20  
Year to date cooling degree days 10 32  
Growing Degree Days 8 (Base 50)    
Moisture  
Dew Point 39 °F    
Average Humidity 51    
Maximum Humidity 71    
Minimum Humidity 31    
Precipitation  
Precipitation 0.00 in 0.13 in 1.01 in (1928)
Month to date precipitation 0.43 2.16  
Year to date precipitation 4.67 7.93  
Snow  
Snow 0.00 in 0.00 in - ()
Month to date snowfall 0.0 0.3  
Since 1 July snowfall 19.9 30.8  
Snow Depth 0.00 in    
Sea Level Pressure  
Sea Level Pressure 29.99 in    
Wind  
Wind Speed 17 mph (South)    
Max Wind Speed 29 mph    
Max Gust Speed 38 mph    
Visibility 10 miles    
Events      
T = Trace of Precipitation, MM = Missing Value Source: NWS Daily Summary

Daily Weather History Graph

Daily Weather History Graph

Search for Another Location

Airport or City:

Trip Planner

Search our weather history database for the weather conditions in past years. The results will help you decide how hot, cold, wet, or windy it might be!

Date:

Astronomy

May. 18, 2014 Rise Set
Actual Time 6:06 AM CDT 8:46 PM CDT
Civil Twilight 5:34 AM CDT 9:18 PM CDT
Nautical Twilight 4:53 AM CDT 9:59 PM CDT
Astronomical Twilight 4:07 AM CDT 10:45 PM CDT
Moon No Moon Rise 9:57 AM CDT (5/18)
Length of Visible Light 15h 44m
Length of Day
14h 40m
Waning Gibbous, 81% of the Moon is Illuminated
May 18
Waning Gibbous
May 21
Last Quarter
May 28
New
Jun 5
First Quarter
Jun 12
Full

Hourly Weather History & Observations

Time (CDT) Temp. Windchill Dew Point Humidity Pressure Visibility Wind Dir Wind Speed Gust Speed Precip Events Conditions
12:56 AM 50.0 °F - 37.0 °F 61% 30.11 in 10.0 mi South 9.2 mph - N/A   Clear
1:56 AM 46.9 °F - 37.0 °F 68% 30.10 in 10.0 mi SSW 9.2 mph - N/A   Clear
2:56 AM 44.1 °F 39.5 °F 36.0 °F 73% 30.11 in 10.0 mi South 8.1 mph - N/A   Clear
3:56 AM 46.0 °F 41.9 °F 37.0 °F 71% 30.10 in 10.0 mi SSW 8.1 mph - N/A   Clear
4:56 AM 46.0 °F 40.2 °F 36.0 °F 68% 30.09 in 10.0 mi South 12.7 mph - N/A   Clear
5:56 AM 46.0 °F 39.9 °F 36.0 °F 68% 30.09 in 10.0 mi South 13.8 mph - N/A   Clear
6:56 AM 46.9 °F - 36.0 °F 66% 30.09 in 10.0 mi South 12.7 mph - N/A   Clear
7:56 AM 52.0 °F - 37.0 °F 57% 30.09 in 10.0 mi South 13.8 mph - N/A   Clear
8:56 AM 57.0 °F - 37.0 °F 47% 30.09 in 10.0 mi South 17.3 mph 20.7 mph N/A   Clear
9:56 AM 61.0 °F - 36.0 °F 39% 30.08 in 10.0 mi South 19.6 mph - N/A   Clear
10:56 AM 64.0 °F - 36.0 °F 35% 30.06 in 10.0 mi South 18.4 mph 27.6 mph N/A   Clear
11:56 AM 66.0 °F - 37.0 °F 34% 30.04 in 10.0 mi South 20.7 mph 28.8 mph N/A   Clear
12:56 PM 68.0 °F - 37.9 °F 33% 30.01 in 10.0 mi SSE 20.7 mph 28.8 mph N/A   Mostly Cloudy
1:56 PM 68.0 °F - 37.9 °F 33% 29.98 in 10.0 mi South 17.3 mph 28.8 mph N/A   Overcast
2:56 PM 69.1 °F - 37.9 °F 32% 29.95 in 10.0 mi South 23.0 mph 31.1 mph N/A   Overcast
3:56 PM 72.0 °F - 41.0 °F 33% 29.90 in 10.0 mi SSE 20.7 mph 35.7 mph N/A   Clear
4:56 PM 72.0 °F - 41.0 °F 33% 29.87 in 10.0 mi South 28.8 mph 38.0 mph N/A   Clear
5:56 PM 72.0 °F - 42.1 °F 34% 29.85 in 10.0 mi SSE 21.9 mph 33.4 mph N/A   Clear
6:56 PM 72.0 °F - 43.0 °F 35% 29.85 in 10.0 mi SSE 17.3 mph 28.8 mph N/A   Clear
7:56 PM 69.1 °F - 44.1 °F 40% 29.84 in 10.0 mi SSE 16.1 mph 23.0 mph N/A   Scattered Clouds
8:56 PM 69.1 °F - 45.0 °F 42% 29.83 in 10.0 mi SSE 17.3 mph 25.3 mph N/A   Overcast
9:56 PM 66.9 °F - 46.0 °F 47% 29.83 in 10.0 mi SE 13.8 mph 27.6 mph N/A   Overcast
10:56 PM 66.0 °F - 46.0 °F 48% 29.83 in 10.0 mi SE 18.4 mph 27.6 mph N/A   Overcast
11:56 PM 64.9 °F - 46.0 °F 50% 29.81 in 10.0 mi SSE 17.3 mph 28.8 mph N/A   Overcast